Total_Precipitation_Accumulation
1.46 1.82 2.36 3.06 3.50 3.67 3.74 3.88 3.84 3.88 3.90 3.82 3.84 4.04 4.20 4.22 4.20 4.33 4.38 4.21 4.10 4.17 4.41 4.44 4.35 4.07 3.78 3.58 3.50 3.43 3.21 2.93 2.75 2.74 2.58 2.29 2.04 2.00 1.92 1.87 1.85 1.70 1.63
1.37 1.83 2.31 2.79 3.10 3.43 3.59 3.72 3.71 3.93 4.18 4.53 5.00 5.27 5.39 5.31 5.13 5.04 4.95 4.82 4.71 4.73 4.79 4.78 4.47 4.16 3.98 3.71 3.45 3.34 3.19 2.95 2.84 2.79 2.83 2.50 2.27 1.95 1.70 1.75 1.74 1.67 1.65
1.41 1.79 2.05 2.42 2.70 3.04 3.31 3.50 3.76 4.22 4.74 5.39 6.16 6.46 6.21 5.82 5.61 5.29 5.22 5.02 4.79 4.74 4.76 4.48 4.21 3.99 3.82 3.64 3.42 3.33 3.24 2.97 2.85 2.87 3.02 2.75 2.43 2.15 1.93 1.73 1.64 1.65 1.68
1.44 1.64 1.89 2.16 2.37 2.74 3.18 3.59 4.03 4.62 5.27 5.82 6.28 6.50 6.37 6.11 5.83 5.39 5.02 4.64 4.31 4.12 4.00 3.88 3.63 3.49 3.38 3.23 3.06 3.05 3.02 2.91 2.70 2.63 2.49 2.41 2.27 2.22 2.05 1.83 1.66 1.63 1.66
1.34 1.48 1.67 1.94 2.26 2.68 3.14 3.63 4.09 4.75 5.24 5.70 6.04 6.24 6.26 6.14 5.77 5.10 4.48 4.08 3.75 3.49 3.22 2.99 2.87 2.86 2.80 2.61 2.42 2.40 2.39 2.38 2.31 2.27 2.15 2.08 2.02 1.98 1.92 1.86 1.78 1.71 1.59
1.49 1.50 1.58 1.76 2.20 2.59 3.08 3.42 3.76 4.45 5.12 5.59 5.92 6.16 6.12 5.88 5.25 4.56 4.03 3.69 3.40 3.12 2.86 2.70 2.51 2.41 2.30 2.15 1.98 1.91 1.90 1.93 1.94 1.98 1.98 1.86 1.80 1.77 1.81 1.73 1.66 1.63 1.56
1.42 1.45 1.65 1.77 2.25 2.61 2.90 3.17 3.41 3.81 4.31 4.73 5.01 5.18 5.22 5.01 4.58 4.16 3.71 3.35 3.10 2.83 2.52 2.22 2.03 1.92 1.86 1.79 1.75 1.66 1.59 1.64 1.66 1.63 1.62 1.62 1.58 1.60 1.68 1.74 1.66 1.57 1.49
1.37 1.40 1.62 1.83 1.97 2.19 2.43 2.73 2.96 3.21 3.46 3.66 3.84 3.81 3.80 3.78 3.59 3.25 2.84 2.53 2.27 2.12 1.96 1.75 1.63 1.58 1.59 1.55 1.51 1.42 1.33 1.38 1.49 1.52 1.58 1.55 1.52 1.60 1.66 1.72 1.80 1.79 1.63
1.33 1.42 1.60 1.72 1.78 1.89 2.10 2.28 2.36 2.55 2.61 2.57 2.56 2.61 2.61 2.61 2.51 2.37 2.10 1.77 1.54 1.43 1.38 1.35 1.32 1.21 1.22 1.27 1.27 1.24 1.23 1.27 1.29 1.32 1.40 1.45 1.48 1.56 1.56 1.62 1.74 1.92 1.87
1.29 1.37 1.50 1.64 1.72 1.75 1.94 2.02 1.94 1.94 1.99 2.03 1.98 1.90 1.92 1.93 1.92 1.85 1.68 1.48 1.32 1.20 1.11 1.08 1.04 0.94 0.90 0.95 1.04 1.07 1.13 1.23 1.20 1.17 1.21 1.25 1.31 1.49 1.59 1.65 1.75 1.90 1.96
1.33 1.42 1.41 1.41 1.45 1.49 1.53 1.59 1.58 1.60 1.58 1.56 1.58 1.55 1.50 1.45 1.45 1.48 1.44 1.30 1.19 1.07 0.96 0.89 0.89 0.88 0.82 0.80 0.88 0.91 0.96 1.06 1.09 1.05 1.07 1.12 1.21 1.31 1.38 1.49 1.62 1.81 1.97
1.44 1.46 1.40 1.29 1.30 1.41 1.41 1.37 1.35 1.34 1.35 1.36 1.37 1.40 1.27 1.20 1.19 1.17 1.17 1.11 1.09 1.05 0.99 0.93 0.91 0.83 0.77 0.79 0.80 0.79 0.79 0.85 0.91 0.94 0.99 0.94 0.99 1.12 1.22 1.33 1.42 1.55 1.70
1.63 1.63 1.52 1.33 1.26 1.32 1.33 1.20 1.14 1.14 1.07 1.09 1.16 1.23 1.15 1.06 1.05 1.01 1.01 1.04 1.03 1.01 0.96 0.92 0.85 0.78 0.76 0.79 0.78 0.75 0.74 0.72 0.73 0.81 0.90 0.93 1.02 1.10 1.20 1.33 1.36 1.44 1.48
1.60 1.63 1.57 1.37 1.35 1.28 1.24 1.09 1.03 1.02 0.97 0.93 0.92 0.98 1.02 0.99 0.96 0.96 0.95 0.91 0.88 0.87 0.82 0.77 0.75 0.74 0.70 0.65 0.63 0.63 0.65 0.69 0.70 0.73 0.77 0.83 0.97 1.09 1.23 1.29 1.37 1.49 1.59
1.61 1.68 1.61 1.39 1.38 1.36 1.31 1.12 0.99 0.97 0.95 0.96 0.93 0.92 0.94 0.89 0.89 0.93 0.92 0.82 0.79 0.73 0.69 0.66 0.65 0.65 0.61 0.56 0.57 0.60 0.61 0.70 0.74 0.77 0.76 0.73 0.81 0.96 1.05 1.10 1.29 1.56 1.73
1.65 1.60 1.48 1.41 1.41 1.39 1.33 1.17 1.03 0.95 0.94 1.04 1.06 1.02 1.01 0.95 0.90 0.90 0.89 0.83 0.82 0.76 0.67 0.68 0.65 0.58 0.48 0.50 0.52 0.54 0.60 0.67 0.73 0.81 0.79 0.69 0.66 0.70 0.77 0.85 0.99 1.23 1.50
1.84 1.75 1.60 1.51 1.55 1.48 1.32 1.23 1.10 1.03 1.02 1.04 1.00 1.03 1.05 0.96 0.87 0.82 0.91 0.90 0.87 0.77 0.70 0.69 0.66 0.59 0.50 0.47 0.45 0.46 0.51 0.63 0.72 0.80 0.82 0.68 0.59 0.70 0.79 0.81 0.81 0.89 1.09
1.85 1.75 1.65 1.61 1.57 1.51 1.42 1.33 1.17 1.05 1.01 0.99 0.94 0.92 0.95 0.95 0.87 0.84 0.86 0.85 0.86 0.84 0.75 0.69 0.69 0.69 0.50 0.46 0.44 0.46 0.54 0.65 0.68 0.70 0.75 0.80 0.81 0.72 0.72 0.78 0.92 1.09 1.18
1.70 1.64 1.59 1.62 1.53 1.44 1.37 1.29 1.16 1.02 0.91 0.88 0.87 0.81 0.78 0.76 0.73 0.72 0.75 0.83 0.86 0.86 0.75 0.69 0.74 0.70 0.54 0.46 0.45 0.47 0.56 0.65 0.65 0.59 0.58 0.62 0.70 0.67 0.72 0.88 1.12 1.32 1.49
1.45 1.41 1.38 1.40 1.41 1.32 1.26 1.24 1.17 1.03 0.85 0.73 0.66 0.65 0.66 0.66 0.68 0.70 0.73 0.73 0.79 0.82 0.70 0.62 0.64 0.59 0.49 0.43 0.42 0.47 0.53 0.61 0.61 0.63 0.61 0.66 0.66 0.67 0.82 0.99 1.29 1.52 1.63
1.33 1.23 1.18 1.18 1.18 1.11 1.03 1.03 1.00 0.88 0.66 0.54 0.51 0.55 0.55 0.55 0.55 0.64 0.68 0.67 0.67 0.72 0.70 0.62 0.58 0.51 0.41 0.37 0.40 0.42 0.43 0.50 0.58 0.63 0.71 0.77 0.78 0.73 0.83 1.01 1.24 1.46 1.53
1.28 1.15 1.08 1.00 0.94 0.87 0.91 0.90 0.77 0.60 0.48 0.46 0.46 0.47 0.46 0.40 0.41 0.56 0.58 0.59 0.66 0.64 0.63 0.66 0.63 0.50 0.40 0.31 0.27 0.29 0.33 0.40 0.58 0.69 0.73 0.77 0.79 0.79 0.91 1.04 1.26 1.47 1.60
1.11 0.97 0.87 0.79 0.73 0.77 0.82 0.76 0.60 0.47 0.42 0.46 0.50 0.46 0.40 0.39 0.38 0.44 0.47 0.49 0.57 0.56 0.52 0.55 0.53 0.45 0.38 0.28 0.19 0.19 0.24 0.33 0.45 0.62 0.77 0.78 0.74 0.88 1.15 1.32 1.45 1.62 1.70
0.91 0.80 0.76 0.72 0.72 0.71 0.63 0.57 0.43 0.39 0.43 0.51 0.51 0.48 0.46 0.43 0.35 0.34 0.33 0.33 0.36 0.40 0.46 0.47 0.46 0.42 0.38 0.27 0.21 0.23 0.26 0.32 0.39 0.52 0.71 0.85 0.91 1.06 1.32 1.55 1.67 1.73 1.67
0.73 0.66 0.71 0.69 0.65 0.57 0.51 0.44 0.38 0.37 0.47 0.49 0.44 0.41 0.39 0.37 0.34 0.27 0.22 0.22 0.23 0.25 0.32 0.37 0.38 0.38 0.32 0.23 0.24 0.26 0.27 0.31 0.38 0.46 0.66 0.88 1.00 1.19 1.39 1.53 1.55 1.52 1.44
0.58 0.55 0.58 0.55 0.48 0.44 0.42 0.36 0.31 0.31 0.40 0.43 0.42 0.35 0.33 0.30 0.26 0.25 0.23 0.18 0.18 0.20 0.22 0.24 0.25 0.25 0.25 0.21 0.20 0.22 0.28 0.35 0.42 0.51 0.75 0.95 1.07 1.23 1.33 1.42 1.40 1.33 1.26